When you browse on this site, cookies collect data to enhance your experience and personalize the content and advertising you see.
Visit our Privacy Policy to learn more. By continuing to use the site, you agree to this use of cookies and data.
  • In Germany
  • List of Countries
  • For 7 days
  • Water Temperature
  • Satellite Maps
  • Weather Map
  • Weather Widgets
  • user-avatar
    Login

    Hourly Weather Karpin

    Today, 23 July, Tuesday

    Time Temperature Precipitation Wind Pressure Humidity
    00:00 +18°C° 0 mm 1 mps 756 mmHg 79%
    01:00 +16°C° 0 mm 1 mps 756 mmHg 81%
    02:00 +16°C° 0 mm 1 mps 756 mmHg 81%
    03:00 +15°C° 0 mm 1 mps 756 mmHg 81%
    04:00 +15°C° 0 mm 1 mps 756 mmHg 80%
    05:00 +16°C° 0 mm 1 mps 756 mmHg 78%
    06:00 +17°C° 0 mm 2 mps 756 mmHg 75%
    07:00 +18°C° 0 mm 2 mps 756 mmHg 72%
    08:00 +18°C° 0 mm 3 mps 756 mmHg 73%
    09:00 +18°C° 0 mm 3 mps 756 mmHg 73%
    10:00 +18°C° 0 mm 3 mps 756 mmHg 73%
    11:00 +18°C° 0 mm 3 mps 756 mmHg 72%
    12:00 +19°C° 0 mm 4 mps 755 mmHg 71%
    13:00 +20°C° 0 mm 4 mps 755 mmHg 70%
    14:00 +20°C° 0 mm 4 mps 755 mmHg 70%
    15:00 +21°C° 0 mm 4 mps 755 mmHg 69%
    16:00 +21°C° 0 mm 4 mps 755 mmHg 69%
    17:00 +20°C° 0 mm 3 mps 755 mmHg 73%
    18:00 +19°C° 0 mm 3 mps 755 mmHg 78%
    19:00 +18°C° 0 mm 3 mps 754 mmHg 83%
    20:00 +17°C° 0 mm 2 mps 755 mmHg 86%
    21:00 +17°C° 0 mm 2 mps 755 mmHg 90%
    22:00 +16°C° 0 mm 2 mps 755 mmHg 93%
    23:00 +15°C° 0 mm 2 mps 755 mmHg 94%

    Tomorrow, 24 July, Wednesday

    Time Temperature Precipitation Wind Pressure Humidity
    00:00 +15°C° 0 mm 2 mps 755 mmHg 94%
    01:00 +15°C° 0 mm 1 mps 755 mmHg 94%
    02:00 +15°C° 0 mm 1 mps 755 mmHg 94%
    03:00 +15°C° 0 mm 1 mps 755 mmHg 94%
    04:00 +15°C° 0 mm 1 mps 755 mmHg 94%
    05:00 +16°C° 0 mm 1 mps 755 mmHg 88%
    06:00 +18°C° 0 mm 1 mps 755 mmHg 82%
    07:00 +20°C° 0 mm 1 mps 755 mmHg 77%
    08:00 +21°C° 0 mm 1 mps 755 mmHg 71%
    09:00 +23°C° 0 mm 2 mps 755 mmHg 65%
    10:00 +24°C° 0 mm 2 mps 755 mmHg 59%
    11:00 +25°C° 0 mm 2 mps 755 mmHg 55%
    12:00 +26°C° 0 mm 2 mps 755 mmHg 51%
    13:00 +27°C° 0 mm 2 mps 755 mmHg 46%
    14:00 +27°C° 0 mm 2 mps 755 mmHg 46%
    15:00 +27°C° 0 mm 2 mps 755 mmHg 46%
    16:00 +27°C° 0 mm 3 mps 755 mmHg 46%
    17:00 +26°C° 0 mm 2 mps 755 mmHg 52%
    18:00 +24°C° 0 mm 2 mps 755 mmHg 58%
    19:00 +23°C° 0 mm 1 mps 754 mmHg 64%
    20:00 +22°C° 0 mm 1 mps 755 mmHg 68%
    21:00 +21°C° 0 mm 1 mps 755 mmHg 72%
    22:00 +20°C° 0 mm 1 mps 756 mmHg 76%
    23:00 +20°C° 0 mm 1 mps 756 mmHg 80%

    Day after tomorrow, 25 July, Thursday

    Time Temperature Precipitation Wind Pressure Humidity
    00:00 +19°C° 0 mm 1 mps 756 mmHg 83%
    01:00 +19°C° 0 mm 1 mps 756 mmHg 86%
    02:00 +18°C° 0 mm 1 mps 756 mmHg 88%
    03:00 +18°C° 0 mm 1 mps 756 mmHg 89%
    04:00 +18°C° 0 mm 1 mps 756 mmHg 90%
    05:00 +19°C° 0 mm 1 mps 756 mmHg 85%
    06:00 +21°C° 0 mm 1 mps 756 mmHg 80%
    07:00 +23°C° 0 mm 1 mps 756 mmHg 74%
    08:00 +24°C° 0.1 mm 1 mps 756 mmHg 69%
    09:00 +25°C° 0.1 mm 2 mps 756 mmHg 63%
    10:00 +26°C° 0.1 mm 2 mps 756 mmHg 57%
    11:00 +27°C° 0.1 mm 2 mps 755 mmHg 54%
    12:00 +28°C° 0.1 mm 2 mps 755 mmHg 50%
    13:00 +28°C° 0.1 mm 3 mps 755 mmHg 47%
    14:00 +28°C° 0 mm 3 mps 755 mmHg 47%
    15:00 +28°C° 0 mm 3 mps 754 mmHg 47%
    16:00 +28°C° 0 mm 4 mps 754 mmHg 47%
    17:00 +27°C° 0 mm 4 mps 754 mmHg 56%
    18:00 +25°C° 0 mm 4 mps 754 mmHg 64%
    19:00 +22°C° 0 mm 4 mps 754 mmHg 73%
    20:00 +21°C° 0 mm 4 mps 754 mmHg 76%
    21:00 +19°C° 0 mm 3 mps 754 mmHg 79%
    22:00 +18°C° 0 mm 3 mps 754 mmHg 82%
    23:00 +17°C° 0 mm 3 mps 754 mmHg 85%

    26 July, Friday

    Time Temperature Precipitation Wind Pressure Humidity
    00:00 +17°C° 0 mm 3 mps 754 mmHg 89%
    01:00 +16°C° 0 mm 3 mps 754 mmHg 93%
    02:00 +16°C° 0 mm 3 mps 754 mmHg 93%
    03:00 +16°C° 0 mm 3 mps 754 mmHg 94%
    04:00 +16°C° 0 mm 3 mps 754 mmHg 94%
    05:00 +17°C° 0 mm 3 mps 754 mmHg 88%
    06:00 +18°C° 0 mm 4 mps 754 mmHg 81%
    07:00 +19°C° 0 mm 4 mps 754 mmHg 75%
    08:00 +20°C° 0.1 mm 4 mps 754 mmHg 71%
    09:00 +21°C° 0.1 mm 5 mps 754 mmHg 67%
    10:00 +22°C° 0.1 mm 5 mps 754 mmHg 63%
    11:00 +23°C° 0 mm 5 mps 754 mmHg 62%
    12:00 +23°C° 0 mm 5 mps 754 mmHg 62%
    13:00 +23°C° 0 mm 5 mps 753 mmHg 61%
    14:00 +23°C° 0 mm 5 mps 753 mmHg 62%
    15:00 +25°C° 0 mm 5 mps 753 mmHg 63%
    16:00 +25°C° 0 mm 5 mps 753 mmHg 64%
    17:00 +23°C° 0 mm 4 mps 753 mmHg 69%
    18:00 +21°C° 0 mm 4 mps 753 mmHg 75%
    19:00 +20°C° 0 mm 3 mps 753 mmHg 80%
    20:00 +20°C° 0 mm 3 mps 753 mmHg 84%
    21:00 +19°C° 0 mm 3 mps 754 mmHg 88%
    22:00 +18°C° 0 mm 3 mps 754 mmHg 92%
    23:00 +18°C° 0 mm 3 mps 754 mmHg 92%

    27 July, Saturday

    Time Temperature Precipitation Wind Pressure Humidity
    00:00 +18°C° 0 mm 3 mps 754 mmHg 92%
    01:00 +18°C° 0 mm 3 mps 754 mmHg 92%
    02:00 +18°C° 0 mm 3 mps 754 mmHg 93%
    03:00 +17°C° 0 mm 3 mps 754 mmHg 94%
    04:00 +17°C° 0 mm 3 mps 754 mmHg 96%
    05:00 +19°C° 0 mm 3 mps 754 mmHg 90%
    06:00 +20°C° 0 mm 4 mps 754 mmHg 85%
    07:00 +21°C° 0 mm 4 mps 754 mmHg 79%
    08:00 +23°C° 0 mm 4 mps 754 mmHg 72%
    09:00 +26°C° 0 mm 4 mps 754 mmHg 65%
    10:00 +27°C° 0 mm 5 mps 754 mmHg 57%
    11:00 +28°C° 0 mm 5 mps 754 mmHg 55%
    12:00 +29°C° 0 mm 5 mps 754 mmHg 53%
    13:00 +30°C° 0 mm 5 mps 753 mmHg 51%
    14:00 +30°C° 0 mm 5 mps 753 mmHg 50%
    15:00 +30°C° 0 mm 5 mps 753 mmHg 50%
    16:00 +30°C° 0 mm 5 mps 753 mmHg 49%
    17:00 +29°C° 0 mm 4 mps 753 mmHg 56%
    18:00 +27°C° 0 mm 3 mps 753 mmHg 62%
    19:00 +26°C° 0 mm 3 mps 753 mmHg 69%
    20:00 +25°C° 0 mm 3 mps 753 mmHg 74%
    21:00 +22°C° 0 mm 3 mps 754 mmHg 79%
    22:00 +21°C° 0 mm 2 mps 754 mmHg 84%
    23:00 +21°C° 0 mm 2 mps 754 mmHg 86%

    28 July, Sunday

    Time Temperature Precipitation Wind Pressure Humidity
    00:00 +20°C° 0 mm 2 mps 754 mmHg 88%
    01:00 +20°C° 0 mm 2 mps 754 mmHg 90%
    02:00 +20°C° 0 mm 2 mps 754 mmHg 91%
    03:00 +19°C° 0 mm 2 mps 754 mmHg 92%
    04:00 +19°C° 0 mm 2 mps 754 mmHg 92%
    05:00 +21°C° 0 mm 2 mps 754 mmHg 86%
    06:00 +23°C° 0 mm 2 mps 754 mmHg 79%
    07:00 +25°C° 0 mm 2 mps 754 mmHg 72%
    08:00 +26°C° 0 mm 3 mps 754 mmHg 65%
    09:00 +28°C° 0 mm 3 mps 754 mmHg 58%
    10:00 +30°C° 0 mm 3 mps 754 mmHg 51%
    11:00 +30°C° 0 mm 3 mps 754 mmHg 51%
    12:00 +30°C° 0 mm 3 mps 754 mmHg 50%
    13:00 +30°C° 0 mm 3 mps 753 mmHg 50%
    14:00 +30°C° 0 mm 3 mps 753 mmHg 48%
    15:00 +31°C° 0 mm 3 mps 753 mmHg 47%
    16:00 +31°C° 0 mm 3 mps 753 mmHg 46%
    17:00 +29°C° 0 mm 3 mps 753 mmHg 52%
    18:00 +28°C° 0 mm 2 mps 753 mmHg 58%
    19:00 +27°C° 0 mm 2 mps 753 mmHg 64%
    20:00 +26°C° 0 mm 2 mps 753 mmHg 68%
    21:00 +24°C° 0 mm 2 mps 754 mmHg 71%
    22:00 +23°C° 0 mm 2 mps 754 mmHg 75%
    23:00 +23°C° 0 mm 2 mps 754 mmHg 78%
    Show more